Location: Casco Millpond
(44.5581°N, 87.6111°W)
Time: 08:44:23
(UTC+00:00)

IRS-1C - Pass Details

Date: 16 January 2026
Orbit: 813 x 814 km, 99.0° (Epoch: 9 February)

Event Time Altitude Azimuth Distance (km) Brightness Sun altitude
Rises 23:17:27 0° 157° (SSE) 3,324 7.3 -7.2°
Reaches altitude 10° 23:19:47 10° 155° (SSE) 2,397 6.5 -7.6°
Maximum altitude 23:25:03 72° 73° (ENE) 860 4.1 -8.4°
Drops below altitude 10° 23:30:22 10° 350° (N) 2,412 6.5 -9.3°
Sets 23:32:43 0° 348° (NNW) 3,348 7.2 -9.7°
